Powrót do katalogu

STARLINK-34724

AktywnyŁącznośćVLEO
NORAD 66442·PAYLOAD·🇺🇸 United States

Wystrzelony Nov 11, 2025 z Cape Canaveral Space Force Station

Loading…

Następne Przeloty (najbliższe 24 godziny)

TLE

ŚwieżeSource: CelesTrak SupGP

Epoka: Sep 14, 2026, 21:30 UTC

1 66442C 25259W   26257.89631944  .00009307  00000+0  33716-3 0  2579
2 66442  43.0001 286.2455 0001448 266.4421  66.3924 15.27568431    19

Śledź STARLINK-34724 w czasie rzeczywistym z AllMySat

Download on the App Store